Location: *
(50.6089°N, 2.2719°E)
Time: 18:29:36
(UTC+00:00)

H-2A R/B - Pass Details

Date: 18 October 2019
Orbit: 734 x 837 km, 98.3° (Epoch: 17 November)

Event Time Altitude Azimuth Distance (km) Brightness Sun altitude
Exits shadow 18:35:44 28° 88° (E) 1,506 2.9 -16.9°
Maximum altitude 18:37:03 31° 62° (ENE) 1,405 2.9 -17.1°
Drops below altitude 10° 18:41:46 10° 1° (N) 2,452 4.7 -17.9°
Sets 18:44:22 0° 352° (N) 3,397 5.5 -18.3°
